Location: Norderney
(53.7000°N, 7.1500°E)
Time: 07:27:16
(UTC+02:00)

X-37B - Pass Details

Date: 25 June 2021
Orbit: 383 x 392 km, 45.0° (Epoch: 01 July)

Event Time Altitude Azimuth Distance (km) Brightness Sun altitude
Rises 00:44:19 0° 246° (WSW) 2,255 4.3 -12.2°
Reaches altitude 10° 00:46:50 10° 226° (SW) 1,402 3.1 -12.2°
Enters shadow 00:47:21 12° 218° (SW) 1,265 2.8 -12.3°
